H1 CPF 2 NER 2024 1 1 9 001 01 glonass129 H2 1106402 9129 37868 2024 1 1 0 0 0 2024 1 4 23 45 0 900 1 1 0 0 0 1 H9 10 0 60310 0.00000 0 21297463.355 -4976637.190 -13135744.115 10 0 60310 900.00000 0 22755718.505 -5081849.208 -10371997.108 10 0 60310 1800.00000 0 23850021.995 -5277963.026 -7407017.418 10 0 60310 2700.00000 0 24555635.492 -5512617.023 -4298426.770 10 0 60310 3600.00000 0 24860782.801 -5730470.097 -1106547.802 10 0 60310 4500.00000 0 24767029.127 -5875765.114 2106764.452 10 0 60310 5400.00000 0 24289121.980 -5894910.255 5279314.605 10 0 60310 6300.00000 0 23454302.663 -5738969.813 8349759.933 10 0 60310 7200.00000 0 22301118.900 -5365960.275 11258782.017 10 0 60310 8100.00000 0 20877789.462 -4742856.137 13950215.600 10 0 60310 9000.00000 0 19240189.407 -3847222.092 16372114.298 10 0 60310 9900.00000 0 17449539.948 -2668403.928 18477734.299 10 0 60310 10800.00000 0 15569898.501 -1208228.795 20226419.020 10 0 60310 11700.00000 0 13665551.850 518814.782 21584369.293 10 0 60310 12600.00000 0 11798419.197 2485925.499 22525285.864 10 0 60310 13500.00000 0 10025571.138 4654853.554 23030873.002 10 0 60310 14400.00000 0 8396965.817 6977246.946 23091194.253 10 0 60310 15300.00000 0 6953494.799 9396426.524 22704873.604 10 0 60310 16200.00000 0 5725418.794 11849519.162 21879137.673 10 0 60310 17100.00000 0 4731257.774 14269863.507 20629696.965 10 0 60310 18000.00000 0 3977181.881 16589591.207 18980466.805 10 0 60310 18900.00000 0 3456929.187 18742278.632 16963131.213 10 0 60310 19800.00000 0 3152254.961 20665560.372 14616555.788 10 0 60310 20700.00000 0 3033895.037 22303596.300 11986058.574 10 0 60310 21600.00000 0 3063004.334 23609289.111 9122550.853 10 0 60310 22500.00000 0 3193011.277 24546158.585 6081562.697 10 0 60310 23400.00000 0 3371810.751 25089792.381 2922171.013 10 0 60310 24300.00000 0 3544203.119 25228810.359 -294149.630 10 0 60310 25200.00000 0 3654475.563 24965299.592 -3504730.865 10 0 60310 26100.00000 0 3649015.057 24314699.610 -6646944.707 10 0 60310 27000.00000 0 3478840.169 23305140.941 -9659442.547 10 0 60310 27900.00000 0 3101941.787 21976263.662 -12483372.874 10 0 60310 28800.00000 0 2485330.636 20377565.369 -15063551.804 10 0 60310 29700.00000 0 1606701.914 18566348.502 -17349561.394 10 0 60310 30600.00000 0 455643.837 16605354.491 -19296752.302 10 0 60310 31500.00000 0 -965663.292 14560185.833 -20867129.541 10 0 60310 32400.00000 0 -2642288.711 12496626.241 -22030102.825 10 0 60310 33300.00000 0 -4546941.263 10477973.186 -22763086.246 10 0 60310 34200.00000 0 -6640891.806 8562496.236 -23051935.416 10 0 60310 35100.00000 0 -8875388.995 6801128.668 -22891213.992 10 0 60310 36000.00000 0 -11193508.337 5235489.258 -22284285.230 10 0 60310 36900.00000 0 -13532356.025 3896316.504 -21243227.963 10 0 60310 37800.00000 0 -15825534.260 2802379.399 -19788580.117 10 0 60310 38700.00000 0 -18005764.020 1959908.160 -17948916.271 10 0 60310 39600.00000 0 -20007554.960 1362566.021 -15760269.150 10 0 60310 40500.00000 0 -21769810.698 991960.077 -13265407.818 10 0 60310 41400.00000 0 -23238260.951 818666.454 -10512988.032 10 0 60310 42300.00000 0 -24367619.749 803723.568 -7556592.535 10 0 60310 43200.00000 0 -25123380.957 900527.846 -4453680.909 10 0 60310 44100.00000 0 -25483177.883 1057049.868 -1264470.047 10 0 60310 45000.00000 0 -25437652.193 1218276.011 1949232.612 10 0 60310 45900.00000 0 -24990798.098 1328771.842 5125220.545 10 0 60310 46800.00000 0 -24159769.522 1335259.121 8202081.645 10 0 60310 47700.00000 0 -22974160.051 1189098.302 11120371.406 10 0 60310 48600.00000 0 -21474787.090 848572.903 13823744.335 10 0 60310 49500.00000 0 -19712031.504 280880.703 16260023.184 10 0 60310 50400.00000 0 -17743802.105 -536250.831 18382187.099 10 0 60310 51300.00000 0 -15633208.973 -1613391.901 20149261.432 10 0 60310 52200.00000 0 -13446041.143 -2948729.382 21527093.876 10 0 60310 53100.00000 0 -11248151.713 -4527906.349 22489003.509 10 0 60310 54000.00000 0 -9102856.868 -6324389.970 23016291.461 10 0 60310 54900.00000 0 -7068454.703 -8300354.315 23098604.143 10 0 60310 55800.00000 0 -5195964.933 -10408043.736 22734142.156 10 0 60310 56700.00000 0 -3527181.746 -12591563.016 21929710.412 10 0 60310 57600.00000 0 -2093119.681 -14789022.872 20700607.339 10 0 60310 58500.00000 0 -912916.804 -16934954.541 19070353.671 10 0 60310 59400.00000 0 6758.922 -18962895.518 17070263.945 10 0 60310 60300.00000 0 671774.502 -20808040.703 14738866.617 10 0 60310 61200.00000 0 1100064.136 -22409849.473 12121181.655 10 0 60310 62100.00000 0 1320647.064 -23714500.004 9267867.395 10 0 60310 63000.00000 0 1372171.002 -24677087.460 6234251.344 10 0 60310 63900.00000 0 1301041.560 -25263472.389 3079262.562 10 0 60310 64800.00000 0 1159216.103 -25451699.629 -135714.255 10 0 60310 65700.00000 0 1001755.564 -25232925.610 -3348040.522 10 0 60310 66600.00000 0 884238.779 -24611812.517 -6495057.069 10 0 60310 67500.00000 0 860150.618 -23606370.455 -9515323.530 10 0 60310 68400.00000 0 978356.895 -22247252.507 -12349837.739 10 0 60310 69300.00000 0 1280775.814 -20576531.330 -14943209.182 10 0 60310 70200.00000 0 1800347.472 -18646008.525 -17244761.416 10 0 60310 71100.00000 0 2559390.196 -16515128.374 -19209539.949 10 0 60310 72000.00000 0 3568415.671 -14248584.772 -20799204.169 10 0 60310 72900.00000 0 4825454.848 -11913723.370 -21982784.729 10 0 60310 73800.00000 0 6315924.355 -9577849.559 -22737290.925 10 0 60310 74700.00000 0 8013039.616 -7305556.678 -23048156.057 10 0 60310 75600.00000 0 9878757.275 -5156187.440 -22909512.478 10 0 60310 76500.00000 0 11865206.696 -3181535.309 -22324291.811 10 0 60310 77400.00000 0 13916549.505 -1423881.742 -21304149.518 10 0 60310 78300.00000 0 15971188.008 85549.726 -19869216.756 10 0 60310 79200.00000 0 17964228.832 1327659.759 -18047685.875 10 0 60310 80100.00000 0 19830097.583 2296017.811 -15875239.255 10 0 60310 81000.00000 0 21505194.513 2996865.337 -13394334.151 10 0 60310 81900.00000 0 22930479.857 3448580.856 -10653358.874 10 0 60310 82800.00000 0 24053881.028 3680632.742 -7705678.015 10 0 60310 83700.00000 0 24832421.842 3732066.937 -4608586.217 10 0 60310 84600.00000 0 25233986.033 3649595.898 -1422191.571 10 0 60310 85500.00000 0 25238642.989 3485371.366 1791749.354 10 0 60311 0.00000 0 24839482.228 3294536.114 4971021.968 10 0 60311 900.00000 0 24042923.270 3132658.341 8054148.629 10 0 60311 1800.00000 0 22868490.460 3053156.962 10981561.602 10 0 60311 2700.00000 0 21348062.574 3104825.147 13696738.107 10 0 60311 3600.00000 0 19524629.627 3329555.596 16147272.724 10 0 60311 4500.00000 0 17450608.857 3760361.868 18285869.917 10 0 60311 5400.00000 0 15185789.365 4419777.815 20071239.050 10 0 60311 6300.00000 0 12794989.636 5318701.511 21468876.453 10 0 60311 7200.00000 0 10345523.483 6455731.955 22451720.978 10 0 60311 8100.00000 0 7904577.400 7817026.857 23000671.722 10 0 60311 9000.00000 0 5536605.839 9376688.749 23104958.696 10 0 60311 9900.00000 0 3300850.176 11097665.330 22762359.461 10 0 60311 10800.00000 0 1249082.326 12933129.049 21979257.139 10 0 60311 11700.00000 0 -576334.849 14828281.394 20770537.570 10 0 60311 12600.00000 0 -2143990.601 16722509.648 19159325.958 10 0 60311 13500.00000 0 -3434508.863 18551808.951 17176566.014 10 0 60311 14400.00000 0 -4441124.808 20251370.926 14860447.357 10 0 60311 15300.00000 0 -5169730.403 21758232.202 12255689.881 10 0 60311 16200.00000 0 -5638385.847 23013872.735 9412696.708 10 0 60311 17100.00000 0 -5876316.112 23966654.774 6386590.317 10 0 60311 18000.00000 0 -5922433.655 24573998.913 3236149.261 10 0 60311 18900.00000 0 -5823448.882 24804203.858 22665.581 10 0 60311 19800.00000 0 -5631648.000 24637830.865 -3191254.796 10 0 60311 20700.00000 0 -5402432.851 24068591.831 -6342924.427 10 0 60311 21600.00000 0 -5191728.160 23103701.006 -9370814.065 10 0 60311 22500.00000 0 -5053368.021 21763673.165 -12215773.665 10 0 60311 23400.00000 0 -5036574.802 20081575.122 -14822208.704 10 0 60311 24300.00000 0 -5183640.002 18101761.089 -17139186.667 10 0 60311 25200.00000 0 -5527908.010 15878144.943 -19121450.104 10 0 60311 26100.00000 0 -6092150.578 13472082.540 -20730314.732 10 0 60311 27000.00000 0 -6887402.776 10949954.102 -21934433.845 10 0 60311 27900.00000 0 -7912311.022 8380549.435 -22710413.364 10 0 60311 28800.00000 0 -9153021.466 5832366.999 -23043265.381 10 0 60311 29700.00000 0 -10583613.479 3370941.086 -22926691.698 10 0 60311 30600.00000 0 -12167059.530 1056309.614 -22363192.634 10 0 60311 31500.00000 0 -13856670.073 -1059271.521 -21364000.154 10 0 60311 32400.00000 0 -15597961.491 -2933272.709 -19948838.039 10 0 60311 33300.00000 0 -17330867.330 -4534413.799 -18145515.316 10 0 60311 34200.00000 0 -18992198.751 -5843704.693 -15989362.481 10 0 60311 35100.00000 0 -20518250.040 -6854962.746 -13522523.061 10 0 60311 36000.00000 0 -21847439.316 -7574788.588 -10793115.698 10 0 60311 36900.00000 0 -22922873.625 -8022004.866 -7854284.364 10 0 60311 37800.00000 0 -23694731.333 -8226584.863 -4763156.146 10 0 60311 38700.00000 0 -24122362.857 -8228119.122 -1579727.574 10 0 60311 39600.00000 0 -24176023.069 -8073887.086 1634298.495 10 0 60311 40500.00000 0 -23838164.317 -7816616.793 4816702.844 10 0 60311 41400.00000 0 -23104237.745 -7512028.048 7905944.112 10 0 60311 42300.00000 0 -21982970.894 -7216262.823 10842334.860 10 0 60311 43200.00000 0 -20496111.192 -6983310.699 13569177.875 10 0 60311 44100.00000 0 -18677646.979 -6862536.753 16033842.306 10 0 60311 45000.00000 0 -16572538.571 -6896414.635 18188760.474 10 0 60311 45900.00000 0 -14235011.815 -7118558.737 19992327.987 10 0 60311 46800.00000 0 -11726484.005 -7552136.916 21409691.660 10 0 60311 47700.00000 0 -9113206.433 -8208729.592 22413411.554 10 0 60311 48600.00000 0 -6463719.241 -9087682.922 22983985.724 10 0 60311 49500.00000 0 -3846221.586 -10175983.758 23110228.323 10 0 60311 50400.00000 0 -1325963.656 -11448663.021 22789493.997 10 0 60311 51300.00000 0 1037233.681 -12869712.724 22027743.822 10 0 60311 52200.00000 0 3191230.656 -14393480.927 20839450.438 10 0 60311 53100.00000 0 5093499.608 -15966489.248 19247342.598 10 0 60311 54000.00000 0 6712655.624 -17529599.785 17281991.965 10 0 60311 54900.00000 0 8029523.075 -19020443.381 14981247.808 10 0 60311 55800.00000 0 9037692.867 -20376009.500 12389528.151 10 0 60311 56700.00000 0 9743546.094 -21535290.280 9556978.842 10 0 60311 57600.00000 0 10165741.776 -22441867.986 6538515.006 10 0 60311 58500.00000 0 10334188.971 -23046336.361 3392762.180 10 0 60311 59400.00000 0 10288545.531 -23308452.339 180917.077 10 0 60311 60300.00000 0 10076306.379 -23198925.172 -3034449.799 10 0 60311 61200.00000 0 9750562.197 -22700764.784 -6190625.535 10 0 60311 62100.00000 0 9367524.233 -21810129.621 -9225994.800 10 0 60311 63000.00000 0 8983921.579 -20536635.514 -12081262.433 10 0 60311 63900.00000 0 8654383.246 -18903110.299 -14700632.565 10 0 60311 64800.00000 0 8428918.447 -16944802.928 -17032919.144 10 0 60311 65700.00000 0 8350604.344 -14708079.514 -19032564.101 10 0 60311 66600.00000 0 8453581.628 -12248661.058 -20660541.566 10 0 60311 67500.00000 0 8761444.763 -9629477.449 -21885129.211 10 0 60311 68400.00000 0 9286096.476 -6918228.748 -22682530.950 10 0 60311 69300.00000 0 10027115.707 -4184757.205 -23037338.627 10 0 60311 70200.00000 0 10971665.867 -1498341.176 -22942824.019 10 0 60311 71100.00000 0 12094946.781 1074975.033 -22401056.274 10 0 60311 72000.00000 0 13361170.281 3474903.420 -21422843.611 10 0 60311 72900.00000 0 14725017.001 5649181.608 -20027501.830 10 0 60311 73800.00000 0 16133511.547 7555495.525 -18242455.695 10 0 60311 74700.00000 0 17528235.654 9162976.915 -16102682.554 10 0 60311 75600.00000 0 18847784.933 10453215.620 -13650010.605 10 0 60311 76500.00000 0 20030365.027 11420747.326 -10932286.891 10 0 60311 77400.00000 0 21016417.511 12072999.708 -8002432.512 10 0 60311 78300.00000 0 21751165.255 12429702.732 -4917404.450 10 0 60311 79200.00000 0 22186970.849 12521791.124 -1737084.897 10 0 60311 80100.00000 0 22285410.046 12389848.043 1476879.938 10 0 60311 81000.00000 0 22018974.461 12082157.635 4662268.947 10 0 60311 81900.00000 0 21372333.690 11652449.996 7757480.594 10 0 60311 82800.00000 0 20343105.383 11157434.152 10702710.301 10 0 60311 83700.00000 0 18942102.319 10654222.810 13441089.164 10 0 60311 84600.00000 0 17193046.848 10197756.509 15919763.420 10 0 60311 85500.00000 0 15131764.940 9838334.247 18090895.523 10 0 60312 0.00000 0 12804893.390 9619352.960 19912569.233 10 0 60312 900.00000 0 10268151.473 9575349.091 21349583.970 10 0 60312 1800.00000 0 7584250.381 9730423.494 22374122.345 10 0 60312 2700.00000 0 4820520.843 10097114.503 22966282.578 10 0 60312 3600.00000 0 2046357.697 10675766.650 23114463.828 10 0 60312 4500.00000 0 -669416.541 11454421.995 22815598.293 10 0 60312 5400.00000 0 -3261162.286 12409240.047 22075225.033 10 0 60312 6300.00000 0 -5668901.736 13505430.806 20907403.055 10 0 60312 7200.00000 0 -7840564.847 14698664.399 19334463.756 10 0 60312 8100.00000 0 -9733910.193 15936901.005 17386605.402 10 0 60312 9000.00000 0 -11318041.173 17162566.998 15101335.168 10 0 60312 9900.00000 0 -12574453.967 18314988.256 12522767.136 10 0 60312 10800.00000 0 -13497572.596 19332979.929 9700787.560 10 0 60312 11700.00000 0 -14094747.390 20157484.521 6690101.721 10 0 60312 12600.00000 0 -14385715.551 20734146.867 3549179.519 10 0 60312 13500.00000 0 -14401545.230 21015716.327 339119.643 10 0 60312 14400.00000 0 -14183106.767 20964172.782 -2877545.570 10 0 60312 15300.00000 0 -13779135.335 20552484.083 -6038080.497 10 0 60312 16200.00000 0 -13243967.243 19765917.783 -9080786.465 10 0 60312 17100.00000 0 -12635046.790 18602848.815 -11946225.856 10 0 60312 18000.00000 0 -12010310.917 17075026.330 -14578404.003 10 0 60312 18900.00000 0 -11425564.547 15207286.330 -16925883.679 10 0 60312 19800.00000 0 -10931960.138 13036720.676 -18942808.344 10 0 60312 20700.00000 0 -10573690.460 10611336.775 -20589812.436 10 0 60312 21600.00000 0 -10385994.263 7988264.248 -21834799.647 10 0 60312 22500.00000 0 -10393560.733 5231584.410 -22653573.235 10 0 60312 23400.00000 0 -10609401.051 2409874.502 -23030305.825 10 0 60312 24300.00000 0 -11034234.937 -406429.431 -22957839.876 10 0 60312 25200.00000 0 -11656417.583 -3147739.786 -22437813.686 10 0 60312 26100.00000 0 -12452409.008 -5747981.033 -21480611.637 10 0 60312 27000.00000 0 -13387764.516 -8147098.400 -20105141.032 10 0 60312 27900.00000 0 -14418602.770 -10293307.526 -18338441.429 10 0 60312 28800.00000 0 -15493487.787 -12144992.455 -16215135.678 10 0 60312 29700.00000 0 -16555643.895 -13672174.719 -13776734.945 10 0 60312 30600.00000 0 -17545408.990 -14857494.804 -11070812.672 10 0 60312 31500.00000 0 -18402821.827 -15696668.011 -8150064.862 10 0 60312 32400.00000 0 -19070233.989 -16198398.960 -5071275.987 10 0 60312 33300.00000 0 -19494836.730 -16383761.697 -1894211.343 10 0 60312 34200.00000 0 -19630996.920 -16285074.426 1319542.152 10 0 60312 35100.00000 0 -19442304.954 -15944318.790 4507764.254 10 0 60312 36000.00000 0 -18903249.852 -15411172.078 7608796.094 10 0 60312 36900.00000 0 -18000452.546 -14740736.169 10562718.862 10 0 60312 37800.00000 0 -16733406.938 -13991059.128 13312494.833 10 0 60312 38700.00000 0 -15114698.477 -13220553.105 15805050.131 10 0 60312 39600.00000 0 -13169691.580 -12485416.055 17992279.998 10 0 60312 40500.00000 0 -10935698.681 -11837164.060 19831959.030 10 0 60312 41400.00000 0 -8460664.615 -11320376.073 21288540.667 10 0 60312 42300.00000 0 -5801419.441 -10970744.054 22333832.120 10 0 60312 43200.00000 0 -3021570.013 -10813508.874 22947533.038 10 0 60312 44100.00000 0 -189115.110 -10862346.741 23117628.416 10 0 60312 45000.00000 0 2626119.815 -11118752.721 22840628.393 10 0 60312 45900.00000 0 5355124.881 -11571947.811 22121650.000 10 0 60312 46800.00000 0 7932318.061 -12199314.909 20974338.216 10 0 60312 47700.00000 0 10298021.271 -12967347.390 19420626.317 10 0 60312 48600.00000 0 12400698.912 -13833072.910 17490338.061 10 0 60312 49500.00000 0 14198866.496 -14745895.208 15220637.071 10 0 60312 50400.00000 0 15662589.776 -15649778.799 12655331.671 10 0 60312 51300.00000 0 16774511.061 -16485686.492 9844046.355 10 0 60312 52200.00000 0 17530358.613 -17194168.172 6841274.050 10 0 60312 53100.00000 0 17938916.198 -17717991.881 3705326.224 10 0 60312 54000.00000 0 18021452.636 -18004705.399 497200.515 10 0 60312 54900.00000 0 17810634.089 -18009018.485 -2720612.066 10 0 60312 55800.00000 0 17348964.228 -17694902.725 -5885356.376 10 0 60312 56700.00000 0 16686818.000 -17037317.326 -8935253.530 10 0 60312 57600.00000 0 15880152.730 -16023484.857 -11810726.444 10 0 60312 58500.00000 0 14987994.594 -14653660.074 -14455584.448 10 0 60312 59400.00000 0 14069808.630 -12941356.749 -16818141.685 10 0 60312 60300.00000 0 13182865.682 -10913020.957 -18852245.408 10 0 60312 61200.00000 0 12379719.873 -8607163.271 -20518192.301 10 0 60312 62100.00000 0 11705905.296 -6072985.814 -21783513.648 10 0 60312 63000.00000 0 11197950.882 -3368561.910 -22623613.225 10 0 60312 63900.00000 0 10881798.292 -558645.316 -23022245.203 10 0 60312 64800.00000 0 10771689.947 2287798.330 -22971823.052 10 0 60312 65700.00000 0 10869573.656 5100233.597 -22473554.152 10 0 60312 66600.00000 0 11165047.884 7809259.683 -21537398.592 10 0 60312 67500.00000 0 11635848.295 10349263.797 -20181854.369 10 0 60312 68400.00000 0 12248853.069 12660912.942 -18433574.691 10 0 60312 69300.00000 0 12961562.426 14693380.832 -16326826.465 10 0 60312 70200.00000 0 13723987.868 16406218.491 -13902802.075 10 0 60312 71100.00000 0 14480869.615 17770792.555 -11208799.326 10 0 60312 72000.00000 0 15174127.292 18771233.823 -8297286.802 10 0 60312 72900.00000 0 15745439.578 19404859.429 -5224873.899 10 0 60312 73800.00000 0 16138843.737 19682054.179 -2051206.268 10 0 60312 74700.00000 0 16303245.658 19625619.118 1162191.375 10 0 60312 75600.00000 0 16194735.381 19269617.479 4353102.608 10 0 60312 76500.00000 0 15778611.663 18657768.580 7459814.123 10 0 60312 77400.00000 0 15031031.827 17841458.869 10422295.670 10 0 60312 78300.00000 0 13940218.696 16877454.127 13183343.349 10 0 60312 79200.00000 0 12507174.907 15825408.836 15689665.603 10 0 60312 80100.00000 0 10745875.372 14745276.540 17892892.657 10 0 60312 81000.00000 0 8682929.729 13694728.386 19750491.771 10 0 60312 81900.00000 0 6356728.163 12726686.299 21226572.455 10 0 60312 82800.00000 0 3816104.709 11887072.259 22292567.773 10 0 60312 83700.00000 0 1118571.505 11212866.146 22927779.935 10 0 60312 84600.00000 0 -1671805.317 10730552.111 23119780.539 10 0 60312 85500.00000 0 -4486802.899 10455017.691 22864658.040 10 0 60313 0.00000 0 -7256615.494 10388951.686 22167107.440 10 0 60313 900.00000 0 -9912502.510 10522766.656 21040359.001 10 0 60313 1800.00000 0 -12389399.664 10835050.702 19505946.868 10 0 60313 2700.00000 0 -14628391.608 11293531.346 17593318.766 10 0 60313 3600.00000 0 -16578940.615 11856513.367 15339292.813 10 0 60313 4500.00000 0 -18200780.237 12474732.263 12787369.279 10 0 60313 5400.00000 0 -19465394.208 13093547.280 9986908.350 10 0 60313 6300.00000 0 -20357017.597 13655382.915 6992187.901 10 0 60313 7200.00000 0 -20873116.711 14102316.454 3861358.190 10 0 60313 8100.00000 0 -21024325.875 14378701.915 655313.022 10 0 60313 9000.00000 0 -20833842.151 14433718.241 -2563500.669 10 0 60313 9900.00000 0 -20336302.251 14223731.879 -5732310.923 10 0 60313 10800.00000 0 -19576188.398 13714371.111 -8789261.282 10 0 60313 11700.00000 0 -18605830.485 12882221.337 -11674637.726 10 0 60313 12600.00000 0 -17483089.702 11716066.495 -14332055.976 10 0 60313 13500.00000 0 -16268822.947 10217621.285 -16709583.752 10 0 60313 14400.00000 0 -15024236.996 8401720.828 -18760774.063 10 0 60313 15300.00000 0 -13808246.297 6295958.012 -20445587.519 10 0 60313 16200.00000 0 -12674947.974 3939782.676 -21731184.350 10 0 60313 17100.00000 0 -11671322.309 1383100.137 -22592569.866 10 0 60313 18000.00000 0 -10835256.873 -1315571.869 -23013080.450 10 0 60313 18900.00000 0 -10193978.085 -4091309.916 -22984700.896 10 0 60313 19800.00000 0 -9762955.995 -6875262.046 -22508207.614 10 0 60313 20700.00000 0 -9545327.418 -9597290.823 -21593135.986 10 0 60313 21600.00000 0 -9531860.014 -12188671.219 -20257573.940 10 0 60313 22500.00000 0 -9701456.633 -14584730.431 -18527787.239 10 0 60313 23400.00000 0 -10022176.207 -16727319.684 -16437685.437 10 0 60313 24300.00000 0 -10452725.619 -18567015.787 -14028140.483 10 0 60313 25200.00000 0 -10944357.258 -20064962.094 -11346172.684 10 0 60313 26100.00000 0 -11443090.228 -21194274.095 -8444021.205 10 0 60313 27000.00000 0 -11892159.961 -21940953.511 -5378118.255 10 0 60313 27900.00000 0 -12234592.000 -22304275.580 -2207987.646 10 0 60313 28800.00000 0 -12415791.055 -22296636.264 1004910.363 10 0 60313 29700.00000 0 -12386036.448 -21942868.589 4198365.492 10 0 60313 30600.00000 0 -12102779.544 -21279059.220 7310612.436 10 0 60313 31500.00000 0 -11532647.515 -20350916.707 10281512.007 10 0 60313 32400.00000 0 -10653070.311 -19211760.844 13053696.648 10 0 60313 33300.00000 0 -9453463.641 -17920217.823 15573659.678 10 0 60313 34200.00000 0 -7935918.968 -16537717.098 17792768.811 10 0 60313 35100.00000 0 -6115371.888 -15125893.763 19668186.299 10 0 60313 36000.00000 0 -4019241.522 -13744003.508 21163679.837 10 0 60313 36900.00000 0 -1686554.683 -12446456.189 22250310.168 10 0 60313 37800.00000 0 833410.593 -11280569.148 22906983.537 10 0 60313 38700.00000 0 3482908.245 -10284632.352 23120859.249 10 0 60313 39600.00000 0 6197862.953 -9486364.847 22887604.781 10 0 60313 40500.00000 0 8910278.892 -8901826.311 22211493.252 10 0 60313 41400.00000 0 11550821.579 -8534829.134 21105340.382 10 0 60313 42300.00000 0 14051468.417 -8376876.357 19590280.637 10 0 60313 43200.00000 0 16348120.046 -8407629.330 17695384.864 10 0 60313 44100.00000 0 18383065.388 -8595887.225 15457124.447 10 0 60313 45000.00000 0 20107198.303 -8901039.178 12918689.976 10 0 60313 45900.00000 0 21481893.180 -9274929.808 10129175.302 10 0 60313 46800.00000 0 22480460.055 -9664060.967 7142640.822 10 0 60313 47700.00000 0 23089116.760 -10012037.660 4017072.795 10 0 60313 48600.00000 0 23307435.417 -10262154.824 813258.103 10 0 60313 49500.00000 0 23148242.600 -10360014.750 -2406403.697 10 0 60313 50400.00000 0 22636975.681 -10256062.703 -5579127.218 10 0 60313 51300.00000 0 21810521.310 -9907930.971 -8642981.766 10 0 60313 52200.00000 0 20715584.483 -9282489.234 -11538119.600 10 0 60313 53100.00000 0 19406657.249 -8357511.351 -14207965.791 10 0 60313 54000.00000 0 17943673.699 -7122885.012 -16600344.311 10 0 60313 54900.00000 0 16389451.691 -5581310.394 -18668516.264 10 0 60313 55800.00000 0 14807031.087 -3748456.176 -20372108.173 10 0 60313 56700.00000 0 13257022.704 -1652564.776 -21677910.841 10 0 60313 57600.00000 0 11795081.444 666477.374 -22560532.352 10 0 60313 58500.00000 0 10469611.388 3158565.580 -23002892.148 10 0 60313 59400.00000 0 9319800.141 5765238.455 -22996546.791 10 0 60313 60300.00000 0 8374065.079 8421896.537 -22541841.751 10 0 60313 61200.00000 0 7648976.009 11060284.154 -21647887.350 10 0 60313 62100.00000 0 7148697.931 13611129.883 -20332360.692 10 0 60313 63000.00000 0 6864975.117 16006834.732 -18621138.980 10 0 60313 63900.00000 0 6777654.532 18184095.503 -16547772.958 10 0 60313 64800.00000 0 6855723.650 20086354.226 -14152812.339 10 0 60313 65700.00000 0 7058816.130 21665972.331 -11482997.821 10 0 60313 66600.00000 0 7339119.306 22886040.295 -8590336.741 10 0 60313 67500.00000 0 7643600.903 23721749.259 -5531081.450 10 0 60313 68400.00000 0 7916459.525 24161269.748 -2364631.054 10 0 60313 69300.00000 0 8101694.639 24206103.441 847621.667 10 0 60313 70200.00000 0 8145687.402 23870895.894 4043475.646 10 0 60313 71100.00000 0 7999683.901 23182720.594 7161116.609 10 0 60313 72000.00000 0 7622076.984 22179866.261 10140299.356 10 0 60313 72900.00000 0 6980391.702 20910179.529 12923495.466 10 0 60313 73800.00000 0 6052891.989 19429032.919 15456985.674 10 0 60313 74700.00000 0 4829742.014 17797002.936 17691877.470 10 0 60313 75600.00000 0 3313674.088 16077354.575 19585030.164 10 0 60313 76500.00000 0 1520135.030 14333435.667 21099871.408 10 0 60313 77400.00000 0 -523095.882 12626088.015 22207091.083 10 0 60313 78300.00000 0 -2776802.973 11011181.119 22885200.601 10 0 60313 79200.00000 0 -5191709.237 9537369.256 23120947.725 10 0 60313 80100.00000 0 -7710275.957 8244163.665 22909579.278 10 0 60313 81000.00000 0 -10268855.184 7160398.973 22254946.428 10 0 60313 81900.00000 0 -12800108.926 6303157.163 21169449.564 10 0 60313 82800.00000 0 -15235597.460 5677194.099 19673822.331 10 0 60313 83700.00000 0 -17508431.740 5274893.288 17796756.991 10 0 60313 84600.00000 0 -19555881.398 5076750.050 15574376.020 10 0 60313 85500.00000 0 -21321830.623 5052367.389 13049557.754 99